Location: Casteau
(50.5142°N, 4.0161°E)
Time: 07:56:55
(UTC+00:00)

Tiros 1 - All Passes

Search period start: 31 July 2021 00:00
Search period end: 10 August 2021 00:00
Orbit: 630 x 664 km, 48.4° (Epoch: 30 July)

Date Brightness Start Highest point End Pass type
(mag) Time Alt. Az. Time Alt. Az. Time Alt. Az.
31 Jul - 00:01:46 10° W 00:05:36 25° SSW 00:09:23 10° SSE visible
31 Jul - 17:40:36 10° SSW 17:44:15 22° SE 17:47:53 10° E daylight
31 Jul - 19:21:11 10° WSW 19:25:50 53° SSE 19:30:27 10° E daylight
31 Jul - 21:03:07 10° W 21:07:50 69° S 21:12:31 10° E visible
31 Jul - 22:45:18 10° W 22:49:44 41° SSW 22:54:07 10° SE visible
01 Aug - 00:28:38 10° WSW 00:31:03 14° SW 00:33:27 10° S visible
01 Aug - 16:27:18 10° SSE 16:28:37 11° SE 16:29:57 10° ESE daylight
01 Aug - 18:05:29 10° SW 18:09:50 35° SSE 18:14:10 10° E daylight
01 Aug - 19:46:57 10° WSW 19:51:41 66° S 19:56:22 10° E daylight
01 Aug - 21:29:02 10° W 21:33:43 59° SSW 21:38:19 10° ESE visible
01 Aug - 23:11:28 10° W 23:15:23 26° SSW 23:19:16 10° SSE visible
02 Aug - 16:50:29 10° SSW 16:54:01 21° SE 16:57:34 10° E daylight
02 Aug - 18:30:56 10° WSW 18:35:35 52° SSE 18:40:11 10° E daylight
02 Aug - 20:12:50 10° W 20:17:35 69° S 20:22:16 10° E visible
02 Aug - 21:55:01 10° W 21:59:30 43° SSW 22:03:56 10° SE visible
02 Aug - 23:38:10 10° WSW 23:40:51 15° SW 23:43:31 10° S visible
03 Aug - 15:37:54 10° SE 15:38:25 10° SE 15:38:57 10° SE daylight
03 Aug - 17:15:17 10° SW 17:19:36 34° SSE 17:23:54 10° E daylight
03 Aug - 18:56:41 10° WSW 19:01:25 65° S 19:06:07 10° E daylight
03 Aug - 20:38:46 10° W 20:43:27 61° SSW 20:48:06 10° ESE visible
03 Aug - 22:21:08 10° W 22:25:10 28° SSW 22:29:08 10° SSE visible
04 Aug - 16:00:23 10° S 16:03:49 20° SE 16:07:14 10° E daylight
04 Aug - 17:40:42 10° SW 17:45:20 50° SSE 17:49:56 10° E daylight
04 Aug - 19:22:33 10° W 19:27:19 69° S 19:32:02 10° E daylight
04 Aug - 21:04:43 10° W 21:09:15 45° SSW 21:13:44 10° SE visible
04 Aug - 22:47:45 10° WSW 22:50:39 16° SW 22:53:32 10° S visible
05 Aug - 16:25:06 10° SW 16:29:22 32° SSE 16:33:37 10° E daylight
05 Aug - 18:06:25 10° WSW 18:11:10 64° S 18:15:52 10° E daylight
05 Aug - 19:48:29 10° W 19:53:12 62° S 19:57:52 10° ESE visible
05 Aug - 21:30:49 10° W 21:34:56 30° SSW 21:39:00 10° SSE visible
06 Aug - 15:10:18 10° S 15:13:35 19° SE 15:16:52 10° E daylight
06 Aug - 16:50:27 10° SW 16:55:04 48° SSE 16:59:40 10° E daylight
06 Aug - 18:32:17 10° W 18:37:03 70° S 18:41:46 10° E daylight
06 Aug - 20:14:26 10° W 20:19:01 47° SSW 20:23:32 10° SE visible
06 Aug - 21:57:20 10° W 22:00:27 17° SW 22:03:32 10° S visible
07 Aug - 15:34:55 10° SSW 15:39:07 31° SSE 15:43:20 10° E daylight
07 Aug - 17:16:08 10° WSW 17:20:54 63° S 17:25:36 10° E daylight
07 Aug - 18:58:12 10° W 19:02:56 64° S 19:07:37 10° ESE daylight
07 Aug - 20:40:31 10° W 20:44:42 31° SSW 20:48:51 10° SSE visible
08 Aug - 14:20:14 10° S 14:23:22 17° SE 14:26:30 10° E daylight
08 Aug - 16:00:13 10° SW 16:04:49 47° SSE 16:09:24 10° E daylight
08 Aug - 17:42:00 10° W 17:46:47 70° S 17:51:32 10° E daylight
08 Aug - 19:24:09 10° W 19:28:46 49° SSW 19:33:19 10° SE daylight
08 Aug - 21:06:57 10° W 21:10:14 19° SW 21:13:29 10° S visible
09 Aug - 14:44:44 10° SSW 14:48:53 29° SSE 14:53:01 10° E daylight
09 Aug - 16:25:53 10° WSW 16:30:38 62° SSE 16:35:22 10° E daylight
09 Aug - 18:07:55 10° W 18:12:41 65° S 18:17:23 10° ESE daylight
09 Aug - 19:50:12 10° W 19:54:28 33° SSW 19:58:41 10° SE visible
